This is the latest recevied weather packets stored in our database for station/object KB4MOX. If no packets are shown the sender has not sent any weather packets the latest 10 day(s).
| Time | Temp. | Humidity | Pressure | Rain* | Wind** | Luminosity | Snow |
|---|---|---|---|---|---|---|---|
| 1788284883 | 32.78° C | 49% | 1019.3 hPa | 0 mm | - | 176 W/m² | - |
| 1788284579 | 33.89° C | 52% | 1019.4 hPa | 0 mm | - | 163 W/m² | - |
| 1788284274 | 33.89° C | 52% | 1019.4 hPa | 0 mm | - | 554 W/m² | - |
| 1788283974 | 34.44° C | 51% | 1019.7 hPa | 0 mm | - | 379 W/m² | - |
| 1788283671 | 34.44° C | 50% | 1019.7 hPa | 0 mm | - | 813 W/m² | - |
| 1788283370 | 33.89° C | 51% | 1019.6 hPa | 0 mm | - | 823 W/m² | - |
| 1788283068 | 33.33° C | 53% | 1019.8 hPa | 0 mm | - | 821 W/m² | - |
| 1788282767 | 32.78° C | 54% | 1020 hPa | 0 mm | - | 255 W/m² | - |
| 1788282467 | 33.89° C | 50% | 1019.9 hPa | 0 mm | - | 778 W/m² | - |
| 1788282167 | 33.89° C | 54% | 1019.9 hPa | 0 mm | - | 810 W/m² | - |
| 1788281865 | 33.33° C | 54% | 1020 hPa | 0 mm | - | 811 W/m² | - |
| 1788281560 | 33.89° C | 53% | 1020.3 hPa | 0 mm | - | 800 W/m² | - |
| 1788281257 | 33.33° C | 53% | 1019.9 hPa | 0 mm | - | 798 W/m² | - |
| 1788280952 | 32.78° C | 54% | 1020.2 hPa | 0 mm | - | 786 W/m² | - |
| 1788280647 | 31.67° C | 58% | 1020.1 hPa | 0 mm | - | 782 W/m² | - |
| 1788280346 | 31.67° C | 61% | 1020.3 hPa | 0 mm | - | 801 W/m² | - |
| 1788280042 | 31.67° C | 59% | 1020.4 hPa | 0 mm | - | 92 W/m² | - |
| 1788279751 | 32.22° C | 60% | 1020.3 hPa | 0 mm | - | 106 W/m² | - |
| 1788279440 | 32.22° C | 59% | 1020.4 hPa | 0 mm | - | 751 W/m² | - |
| 1788279135 | 32.78° C | 58% | 1020.4 hPa | 0 mm | - | 315 W/m² | - |
| 1788278831 | 32.22° C | 59% | 1020.5 hPa | 0 mm | - | 761 W/m² | - |
| 1788278526 | 31.67° C | 60% | 1020.5 hPa | 0 mm | - | 723 W/m² | - |
| 1788278225 | 32.22° C | 58% | 1020.5 hPa | 0 mm | - | 397 W/m² | - |
| 1788277920 | 32.22° C | 61% | 1020.4 hPa | 0 mm | - | 685 W/m² | - |
| 1788277615 | 32.22° C | 61% | 1020.5 hPa | 0 mm | - | 662 W/m² | - |
* Rain latest hour (hover to see other rain measurements)
** Current wind speed in m/s (hover to see current wind gust speed)